Regional Weather Roundup
Issued by NWS

Home | Current Version | Previous Version | Graphics & Text | Print | Product List | Glossary Off
Versions: 1 2 3 4 5 6 7 8 9 10 11 12 13 14 15 16 17 18 19 20 21 22 23 24 25 26 27 28 29 30 31 32 33 34 35 36 37 38 39 40 41 42 43 44 45 46 47 48 49 50

000
ASUS43 KTOP 210359
RWRKS

WEATHER ROUNDUP FOR KANSAS
NATIONAL WEATHER SERVICE GOODLAND KS
1100 PM CDT WED SEP 20 2017

NOTE:  "FAIR" INDICATES FEW OR NO CLOUDS BELOW 12,000 FEET WITH NO
SIGNIFICANT WEATHER AND/OR OBSTRUCTIONS TO VISIBILITY.

KSZ001>006-013>018-027>032-041>047-210500-
NORTHWEST KANSAS

CITY           SKY/WX    TMP DP  RH WIND       PRES   REMARKS
GOODLAND       CLEAR     55  35  47 SE7       29.90S
HAYS           CLEAR     65  51  60 NE9       29.87R
HILL CITY      CLEAR     60  39  45 E6        29.89S
RUSSELL        CLEAR     66  54  65 NE7       29.85S
$$

KSZ061>065-074>080-084>089-210500-
SOUTHWEST KANSAS

CITY           SKY/WX    TMP DP  RH WIND       PRES   REMARKS
DODGE CITY     CLEAR     63  48  58 E7        29.88S
ELKHART          N/A     62  44  51 S9          N/A
GARDEN CITY    CLEAR     65  45  48 E8        29.88S
GREAT BEND     CLEAR     70  55  59 NE6       29.86R
LIBERAL        CLEAR     60  49  66 S10       29.89S
$$

KSZ066>073-081>083-090>101-210500-
SOUTHEAST KANSAS

CITY           SKY/WX    TMP DP  RH WIND       PRES   REMARKS
CHANUTE        CLOUDY    81  72  74 S8        29.86S
COFFEYVILLE    PTCLDY    78  72  81 S7        29.85R
HUTCHINSON     PTCLDY    77  60  55 NE7       29.83R
MEDICINE LODGE   N/A     70  59  68 NE3       29.83R
NEWTON         PTCLDY    77  70  79 SE8       29.85R
WICHITA INTL   PTCLDY    79  72  79 S9        29.83R
WICHITA JABRA  PTCLDY    79  72  79 S6        29.84R
WINFIELD       CLEAR     78  73  84 SE6       29.85R
$$

KSZ007>012-019>026-033>040-048>060-102>105-210500-
NORTHEAST KANSAS

CITY           SKY/WX    TMP DP  RH WIND       PRES   REMARKS
CONCORDIA      PTCLDY    66  58  75 E5        29.86S
EMPORIA        PTCLDY    77  71  82 S7        29.84R
LAWRENCE       PTCLDY    77  75  93 E5        29.83R
MANHATTAN      MOCLDY    77  67  71 N5        29.83R
OLATHE IND     PTCLDY    78  73  84 S7        29.87R
OLATHE EXE     CLEAR     77  74  90 S5        29.86R
SALINA         PTCLDY    77  61  57 NE3       29.83S
TOPEKA BILLARD PTCLDY    76  75  97 CALM      29.83R
TOPEKA FORBES  CLEAR     78  74  87 SE5       29.83S
$$



USA.gov is the U.S. government's official web portal to all federal, state and local government web resources and services.